Beatrice, NE

4:35 AM CST on December 08, 2019 (GMT -0600)
Beatrice Municipal

Weather History for KBIE - November, 2019

Change the Weather History Date:

Tuesday, November 19, 2019

  Actual Average Record
Temperature  
Mean Temperature 47 °F -  
Max Temperature 63 °F 52 °F 73 °F (2007)
Min Temperature 31 °F 30 °F 14 °F (2014)
Degree Days  
Heating Degree Days 18    
Moisture  
Dew Point 34 °F    
Average Humidity 64    
Maximum Humidity 96    
Minimum Humidity 33    
Precipitation  
Precipitation 0.00 in - - ()
Sea Level Pressure  
Sea Level Pressure 29.89 in    
Wind  
Wind Speed 5 mph ()    
Max Wind Speed 9 mph    
Max Gust Speed -    
Visibility 10.0 miles    
Events      
Averages and records for this station are not official NWS values.
T = Trace of Precipitation, MM = Missing Value Source: Averaged Metar Reports

Daily Weather History Graph

Daily Weather History Graph

Search for Another Location

Airport or City:

Astronomy

Nov. 19, 2019 Rise Set
Actual Time 7:17 AM CST 5:07 PM CST
Civil Twilight 6:47 AM CST 5:36 PM CST
Nautical Twilight 6:14 AM CST 6:09 PM CST
Astronomical Twilight 5:42 AM CST 6:41 PM CST
Moon No Moon Rise 1:28 PM CST (11/19)
Length of Visible Light 10h 48m
Length of Day
9h 49m
Waning Gibbous, 51% of the Moon is Illuminated
Nov 19
Waning Gibbous
Nov 19
Last Quarter
Nov 26
New
Dec 4
First Quarter
Dec 11
Full

Hourly Weather History & Observations

Time (CST) Temp. Windchill Dew Point Humidity Pressure Visibility Wind Dir Wind Speed Gust Speed Precip Events Conditions
12:15 AM 39.4 °F 33.2 °F 33.8 °F 80% 29.85 in 10.0 mi NNW 9.2 mph - N/A   Clear
12:35 AM 39.4 °F 34.5 °F 34.0 °F 81% 29.85 in 10.0 mi NW 6.9 mph - N/A   Clear
12:55 AM 39.7 °F 33.7 °F 34.7 °F 82% 29.85 in 10.0 mi West 9.2 mph - N/A   Clear
1:35 AM 35.2 °F 31.2 °F 32.0 °F 88% 29.85 in 10.0 mi West 4.6 mph - N/A   Clear
1:55 AM 35.2 °F - 32.0 °F 88% 29.85 in 10.0 mi Calm Calm - N/A   Clear
2:15 AM 35.8 °F 30.1 °F 32.4 °F 87% 29.85 in 10.0 mi West 6.9 mph - N/A   Clear
2:35 AM 34.9 °F 29.0 °F 32.0 °F 89% 29.85 in 10.0 mi WNW 6.9 mph - N/A   Clear
2:55 AM 35.4 °F 29.7 °F 32.4 °F 89% 29.85 in 10.0 mi West 6.9 mph - N/A   Clear
3:15 AM 34.3 °F 27.7 °F 31.8 °F 90% 29.85 in 10.0 mi West 8.1 mph - N/A   Clear
3:35 AM 36.5 °F 30.3 °F 33.3 °F 88% 29.85 in 10.0 mi West 8.1 mph - N/A   Clear
3:55 AM 36.3 °F 30.1 °F 33.1 °F 88% 29.85 in 10.0 mi West 8.1 mph - N/A   Clear
4:15 AM 36.9 °F 30.1 °F 33.6 °F 88% 29.87 in 10.0 mi West 9.2 mph - N/A   Clear
4:35 AM 36.5 °F 30.3 °F 33.3 °F 88% 29.88 in 10.0 mi West 8.1 mph - N/A   Clear
4:55 AM 35.4 °F 32.6 °F 32.4 °F 89% 29.88 in 10.0 mi West 3.5 mph - N/A   Clear
5:15 AM 34.9 °F - 32.4 °F 91% 29.88 in 10.0 mi Calm Calm - N/A   Clear
5:35 AM 33.1 °F - 31.8 °F 95% 29.88 in 10.0 mi Calm Calm - N/A   Clear
5:55 AM 33.8 °F - 32.0 °F 93% 29.89 in 10.0 mi Calm Calm - N/A   Clear
6:15 AM 31.8 °F 26.2 °F 30.0 °F 93% 29.89 in 10.0 mi WSW 5.8 mph - N/A   Clear
6:35 AM 32.0 °F 28.7 °F 30.9 °F 96% 29.90 in 10.0 mi WSW 3.5 mph - N/A   Clear
6:55 AM 31.8 °F - 30.7 °F 96% 29.91 in 10.0 mi Calm Calm - N/A   Clear
7:15 AM 32.0 °F - 31.1 °F 96% 29.91 in 10.0 mi Calm Calm - N/A   Clear
7:35 AM 31.8 °F - 30.6 °F 95% 29.91 in 10.0 mi Calm Calm - N/A   Clear
7:55 AM 31.5 °F - 30.2 °F 95% 29.91 in 10.0 mi Calm Calm - N/A   Clear
8:15 AM 32.9 °F - 31.1 °F 93% 29.92 in 10.0 mi Calm Calm - N/A   Clear
8:55 AM 38.8 °F 34.6 °F 34.3 °F 84% 29.95 in 10.0 mi WSW 5.8 mph - N/A   Clear
9:15 AM 41.7 °F 38.8 °F 35.2 °F 78% 29.95 in 10.0 mi WSW 4.6 mph - N/A   Clear
9:35 AM 44.4 °F 42.9 °F 35.8 °F 72% 29.95 in 10.0 mi WSW 3.5 mph - N/A   Clear
9:55 AM 46.8 °F - 36.5 °F 67% 29.95 in 10.0 mi SW 5.8 mph - N/A   Clear
10:15 AM 49.1 °F - 36.7 °F 62% 29.96 in 10.0 mi WSW 3.5 mph - N/A   Clear
10:35 AM 51.3 °F - 36.7 °F 57% 29.95 in 10.0 mi Calm Calm - N/A   Clear
10:55 AM 53.4 °F - 36.9 °F 53% 29.95 in 10.0 mi West 4.6 mph - N/A   Clear
11:15 AM 55.6 °F - 37.2 °F 50% 29.95 in 10.0 mi WSW 4.6 mph - N/A   Clear
11:35 AM 57.9 °F - 37.4 °F 46% 29.93 in 10.0 mi SW 4.6 mph - N/A   Clear
11:55 AM 59.5 °F - 37.4 °F 44% 29.92 in 10.0 mi Calm Calm - N/A   Clear
12:15 PM 60.4 °F - 36.0 °F 40% 29.91 in 10.0 mi SW 4.6 mph - N/A   Clear
12:35 PM 61.2 °F - 34.5 °F 37% 29.90 in 10.0 mi WSW 5.8 mph - N/A   Clear
12:55 PM 61.5 °F - 34.7 °F 37% 29.90 in 10.0 mi SSW 6.9 mph - N/A   Clear
1:15 PM 61.7 °F - 34.2 °F 36% 29.89 in 10.0 mi South 5.8 mph - N/A   Clear
1:55 PM 61.7 °F - 34.0 °F 35% 29.88 in 10.0 mi South 4.6 mph - N/A   Clear
2:15 PM 62.8 °F - 33.4 °F 33% 29.88 in 10.0 mi SSW 3.5 mph - N/A   Clear
2:35 PM 63.3 °F - 34.0 °F 33% 29.87 in 10.0 mi South 6.9 mph - N/A   Clear
2:55 PM 63.3 °F - 35.6 °F 36% 29.87 in 10.0 mi SSW 4.6 mph - N/A   Scattered Clouds
3:15 PM 63.5 °F - 35.8 °F 36% 29.87 in 10.0 mi South 5.8 mph - N/A   Scattered Clouds
3:35 PM 62.6 °F - 35.1 °F 36% 29.87 in 10.0 mi SSE 8.1 mph - N/A   Clear
3:55 PM 61.7 °F - 34.9 °F 37% 29.87 in 10.0 mi SSE 6.9 mph - N/A   Clear
4:15 PM 60.4 °F - 34.7 °F 38% 29.87 in 10.0 mi SE 6.9 mph - N/A   Clear
4:35 PM 59.2 °F - 34.5 °F 40% 29.86 in 10.0 mi SE 4.6 mph - N/A   Clear
4:55 PM 58.1 °F - 34.5 °F 41% 29.87 in 10.0 mi ESE 4.6 mph - N/A   Clear
5:15 PM 56.3 °F - 34.7 °F 44% 29.86 in 10.0 mi SE 4.6 mph - N/A   Clear
5:35 PM 55.6 °F - 34.7 °F 45% 29.87 in 10.0 mi SE 5.8 mph - N/A   Clear
5:55 PM 54.9 °F - 34.2 °F 46% 29.87 in 10.0 mi ESE 4.6 mph - N/A   Clear
6:15 PM 53.4 °F - 34.2 °F 48% 29.87 in 10.0 mi SE 5.8 mph - N/A   Clear
6:35 PM 52.7 °F - 34.0 °F 49% 29.87 in 10.0 mi SE 4.6 mph - N/A   Clear
6:55 PM 52.0 °F - 33.8 °F 50% 29.87 in 10.0 mi ESE 4.6 mph - N/A   Clear
7:35 PM 49.5 °F - 33.8 °F 55% 29.87 in 10.0 mi ESE 4.6 mph - N/A   Clear
7:55 PM 49.5 °F - 33.8 °F 55% 29.87 in 10.0 mi ESE 4.6 mph - N/A   Clear
8:15 PM 49.1 °F - 33.6 °F 55% 29.87 in 10.0 mi ESE 6.9 mph - N/A   Clear
8:35 PM 48.4 °F - 33.3 °F 56% 29.87 in 10.0 mi ESE 5.8 mph - N/A   Clear
8:55 PM 48.4 °F - 33.1 °F 56% 29.88 in 10.0 mi SE 5.8 mph - N/A   Clear
9:15 PM 49.1 °F - 32.9 °F 54% 29.88 in 10.0 mi SE 4.6 mph - N/A   Clear
9:35 PM 48.7 °F - 32.9 °F 54% 29.88 in 10.0 mi SE 5.8 mph - N/A   Clear
9:55 PM 48.4 °F - 32.9 °F 55% 29.89 in 10.0 mi SE 4.6 mph - N/A   Clear
10:15 PM 47.7 °F - 32.5 °F 56% 29.89 in 10.0 mi SE 4.6 mph - N/A   Clear
10:35 PM 48.0 °F - 32.9 °F 56% 29.89 in 10.0 mi SE 5.8 mph - N/A   Clear
10:55 PM 48.2 °F - 32.9 °F 55% 29.88 in 10.0 mi SE 6.9 mph - N/A   Clear
11:15 PM 48.6 °F - 33.4 °F 56% 29.88 in 10.0 mi SE 6.9 mph - N/A   Clear
11:35 PM 48.6 °F - 33.8 °F 57% 29.87 in 10.0 mi SE 8.1 mph - N/A   Clear
11:55 PM 48.6 °F - 34.0 °F 57% 29.86 in 10.0 mi SE 8.1 mph - N/A   Clear